FW5955 Weather Reports


Display with metric or nautical units.
time (UTC)temp
F
wind
direction
speed
MPH
gust
MPH
rain 1hr
in
rain 24hr
in
rain mn
in
humidity
%
barometer
mb
20260904023112 64 226 3.0 12.0 0.00 0.03 0.03 88 1015.8
20260904021558 65 250 2.0 10.0 0.00 0.03 0.03 91 1016.0
20260904020056 65 135 4.0 7.0 0.00 0.03 0.03 92 1016.1
20260904014555 64 160 3.0 7.0 0.00 0.03 0.03 92 1016.3
20260904013111 64 130 1.0 5.0 0.00 0.03 0.03 92 1016.6
20260904011548 64 198 0.0 2.0 0.00 0.03 0.03 92 1016.8
20260904010049 64 155 1.0 6.0 0.00 0.03 0.03 91 1017.0
20260904004546 64 186 0.0 3.0 0.00 0.03 0.03 92 1017.1
20260904003045 64 143 1.0 4.0 0.01 0.03 0.03 91 1017.3
20260904001556 65 152 2.0 7.0 0.01 0.03 0.03 91 1017.4
20260904000040 65 191 3.0 6.0 0.01 0.03 0.03 91 1017.5
20260903234540 65 205 2.0 6.0 0.01 0.03 0.03 91 1017.5
20260903233044 65 193 2.0 8.0 0.00 0.02 0.02 90 1017.7
20260903231541 65 187 3.0 7.0 0.00 0.02 0.02 90 1017.6
20260903230037 65 186 3.0 8.0 0.00 0.02 0.02 90 1017.8
20260903224540 65 221 3.0 7.0 0.00 0.02 0.02 90 1017.9
20260903223038 65 210 3.0 7.0 0.01 0.02 0.02 89 1017.8
20260903221533 65 155 3.0 11.0 0.01 0.02 0.02 89 1017.9
20260903220031 65 133 2.0 10.0 0.02 0.02 0.02 89 1018.1
20260903214534 64 161 3.0 7.0 0.02 0.02 0.02 89 1018.1
20260903213038 65 167 3.0 10.0 0.02 0.02 0.02 89 1018.3
20260903211528 65 176 4.0 10.0 0.02 0.02 0.02 89 1018.4
20260903210028 65 165 2.0 7.0 0.01 0.01 0.01 88 1018.4
20260903204524 65 175 4.0 8.0 0.00 0.00 0.00 88 1018.7
20260903203024 65 193 3.0 7.0 0.00 0.00 0.00 88 1018.7
20260903201522 66 175 3.0 10.0 0.00 0.00 0.00 87 1018.8
20260903200020 66 151 3.0 9.0 0.00 0.00 0.00 86 1019.0
20260903194519 66 153 4.0 9.0 0.00 0.00 0.00 86 1019.2
20260903193019 66 151 4.0 8.0 0.00 0.00 0.00 84 1019.2
20260903191525 66 166 5.0 10.0 0.00 0.00 0.00 84 1019.4
20260903190015 67 114 5.0 9.0 0.00 0.00 0.00 84 1019.5
20260903184513 67 145 5.0 10.0 0.00 0.00 0.00 82 1019.8
20260903183021 67 196 4.0 10.0 0.00 0.00 0.00 83 1019.9
20260903181509 67 167 3.0 9.0 0.00 0.00 0.00 83 1020.1
20260903180015 67 165 3.0 9.0 0.00 0.00 0.00 83 1020.3
20260903174506 66 155 4.0 9.0 0.00 0.00 0.00 82 1020.4
20260903173006 66 177 6.0 11.0 0.00 0.00 0.00 82 1020.4
20260903171504 66 174 4.0 10.0 0.00 0.00 0.00 83 1020.5
20260903170002 66 121 5.0 9.0 0.00 0.00 0.00 81 1020.7
20260903164601 66 224 6.0 10.0 0.00 0.00 0.00 80 1020.8
20260903163135 66 193 4.0 10.0 0.00 0.00 0.00 81 1020.9
20260903161600 66 152 6.0 10.0 0.00 0.00 0.00 80 1020.9
20260903154557 66 117 3.0 11.0 0.00 0.00 0.00 83 1020.9
20260903153056 66 165 4.0 11.0 0.00 0.00 0.00 82 1021.1
20260903151555 66 223 2.0 11.0 0.00 0.00 0.00 83 1021.2
20260903150057 66 139 3.0 9.0 0.00 0.00 0.00 82 1021.1
20260903144554 66 165 4.0 9.0 0.00 0.00 0.00 81 1021.1
20260903143053 67 214 1.0 5.0 0.00 0.00 0.00 81 1021.3
20260903141549 67 149 2.0 10.0 0.00 0.00 0.00 82 1021.5
20260903140049 67 195 3.0 9.0 0.00 0.00 0.00 82 1021.8
20260903134609 66 156 4.0 9.0 0.00 0.00 0.00 82 1021.5
20260903133051 66 107 2.0 8.0 0.00 0.00 0.00 84 1021.5
20260903131545 65 179 3.0 8.0 0.00 0.00 0.00 84 1021.5
20260903130049 65 158 1.0 9.0 0.00 0.00 0.00 85 1021.4
20260903124548 65 172 3.0 9.0 0.00 0.00 0.00 85 1021.3
20260903123044 65 129 3.0 9.0 0.00 0.00 0.00 85 1021.5
20260903121550 65 200 2.0 8.0 0.00 0.00 0.00 85 1021.5
20260903120056 66 174 1.0 6.0 0.00 0.00 0.00 85 1021.7
20260903114557 66 208 3.0 8.0 0.00 0.00 0.00 85 1021.8
20260903113040 65 183 4.0 9.0 0.00 0.00 0.00 84 1021.9
20260903111538 65 148 1.0 7.0 0.00 0.00 0.00 85 1021.8
20260903110037 65 149 1.0 7.0 0.00 0.00 0.00 85 1021.8
20260903104538 65 224 4.0 7.0 0.00 0.00 0.00 85 1021.8
20260903103037 65 129 2.0 7.0 0.00 0.00 0.00 84 1021.9
20260903101538 65 196 2.0 7.0 0.00 0.00 0.00 84 1021.7
20260903100044 65 181 2.0 6.0 0.00 0.00 0.00 83 1021.7
20260903094537 65 169 2.0 8.0 0.00 0.00 0.00 83 1021.7
20260903093034 65 193 2.0 5.0 0.00 0.00 0.00 83 1021.7
20260903091532 65 180 1.0 5.0 0.00 0.00 0.00 83 1021.8
20260903090033 65 189 1.0 7.0 0.00 0.00 0.00 82 1021.9
20260903084532 65 234 2.0 6.0 0.00 0.01 0.00 83 1021.9
20260903083041 65 248 2.0 7.0 0.00 0.01 0.00 83 1021.9
20260903081530 65 219 2.0 6.0 0.00 0.01 0.00 82 1021.8
20260903080028 65 207 1.0 6.0 0.00 0.01 0.00 83 1021.9
20260903074528 65 195 2.0 8.0 0.00 0.01 0.00 84 1022.0
20260903073027 65 236 2.0 0.0 0.00 0.00 0.00 84 1022.1
20260903071529 65 250 1.0 7.0 0.00 0.01 0.00 84 1022.1
20260903070025 65 177 2.0 5.0 0.00 0.01 0.00 85 1022.0
20260903064525 65 218 2.0 7.0 0.00 0.01 0.00 84 1022.2
20260903063024 65 179 2.0 6.0 0.00 0.01 0.00 85 1022.1
20260903061539 66 145 3.0 9.0 0.00 0.01 0.00 84 1022.0
20260903060023 66 130 2.0 9.0 0.00 0.01 0.00 85 1022.1
20260903054523 66 205 2.0 7.0 0.00 0.01 0.00 85 1021.9
20260903053022 66 190 2.0 7.0 0.00 0.01 0.00 85 1021.8
20260903051519 65 255 0.0 6.0 0.00 0.01 0.00 85 1022.0
20260903050019 65 221 1.0 4.0 0.00 0.01 0.00 85 1022.1
20260903044518 65 248 1.0 4.0 0.00 0.01 0.00 85 1022.2
20260903043018 65 233 1.0 3.0 0.00 0.01 0.00 84 1022.3
20260903041528 65 224 1.0 4.0 0.00 0.01 0.00 85 1022.3
20260903040018 65 178 1.0 4.0 0.00 0.01 0.00 85 1022.4
20260903034515 65 216 4.0 6.0 0.00 0.01 0.00 84 1022.5
20260903033016 65 224 1.0 5.0 0.00 0.01 0.00 85 1022.4
20260903031520 65 186 1.0 5.0 0.00 0.01 0.00 86 1022.1
20260903030012 65 197 1.0 4.0 0.00 0.01 0.00 86 1022.1
20260903024508 65 167 1.0 6.0 0.00 0.01 0.01 87 1022.0